Orbital Elements at Epoch 2459200.5 (2020-Dec-17.0) TDB
Reference: JPL 13 (heliocentric ecliptic J2000)
Element | Value | Uncertainty (1-sigma) | Units |
e | .1284500437471832 | 5.8688e-08 | |
a | 2.352201523137985 | 1.7317e-08 | au |
q | 2.05006113458872 | 1.3584e-07 | au |
i | 1.7540380666703 | 7.0082e-06 | deg |
node | 130.6173880484335 | 0.00025979 | deg |
peri | 352.4353579413725 | 0.00026256 | deg |
M | 334.3449368655346 | 3.4797e-05 | deg |
tp | 2459294.403289058011 (2021-Mar-20.90328906) | 0.00012752 | TDB |
period | 1317.680797887788 3.61 | 1.4551e-05 3.984e-08 | d yr |
n | .2732072900941349 | 3.017e-09 | deg/d |
Q | 2.65434191168725 | 1.9541e-08 | au |
|
| | Orbit Determination Parameters
Additional Information
|